Location: T�chigga el Be�da
(16.4766°N, 9.3887°W)
Time: 09:27:58
(UTC+00:00)

Centaur AC-112 - Pass Details

Date: 27 February 2020
Orbit: 294 x 20501 km, 26.7° (Epoch: 28 March)

Event Time Altitude Azimuth Distance (km) Brightness Sun altitude
Rises 20:05:33 0° 293° (WNW) 2,319 6.6 -20.3°
Reaches altitude 10° 20:06:50 10° 293° (WNW) 1,708 5.7 -20.6°
Maximum altitude 20:10:08 88° 21° (NNE) 881 3.2 -21.4°
Enters shadow 20:14:26 30° 112° (ESE) 2,517 5.1 -22.4°
